Other Surface Observations
Issued by NWS Tucson, AZ

Home | Current Version | Previous Version | Text Only | Print | Product List | Glossary On
Versions: 1 2 3 4 5 6 7 8 9 10 11 12 13 14 15 16 17 18 19 20 21 22 23 24 25 26 27 28 29 30 31 32 33 34 35 36 37 38 39 40 41 42 43 44 45 46 47 48 49 50
000
SXUS55 KTWC 222315
OSOTWC

WEATHER ROUNDUP FOR SOUTHEAST ARIZONA
NATIONAL WEATHER SERVICE TUCSON AZ
415 PM MST MON DEC 22 2014

AZZ504>506-514-230015-
LOCATION       SKY/WX    TMP DP  RH WIND       PRES   REMARKS
TUCSON         SUNNY     65  39  38 VRB6      29.93S
DAVIS-MONTHAN  SUNNY     63  40  42 W9        29.90F
CHILDRENS PARK N/A       63  40  42 NW5               PIMA CO DEQ
ALVERNON/22ND  N/A      N/A N/A N/A N/A               PIMA CO DEQ
CHERRY/GLENN   N/A      N/A N/A N/A N/A               PIMA CO DEQ
TANGERINE      N/A       63 N/A N/A W5                PIMA CO DEQ
CONTL RANCH    N/A       64  40  41 NW6               PIMA CO DEQ
GRANT/1ST      N/A       64  40  42 NW4               PIMA CO DEQ
CRAYCROFT/22ND N/A      N/A N/A N/A N/A               PIMA CO DEQ
GOLFLINKS/KOLB N/A       63  39  41 W4                PIMA CO DEQ
AJO/12TH       N/A       65  38  37 SW6               PIMA CO DEQ
SAGUARO EAST   N/A      N/A N/A N/A N/A               PIMA CO DEQ
FAIRGROUNDS    N/A       62 N/A N/A W9                PIMA CO DEQ
SAGUARO        N/A       65  39  38 S3                *SABINO CYN
SAN CARLOS     N/A       62  40  45 S10G14            *SAN CARLOS
GREEN VALLEY   N/A       67  36  32 N4                PIMA CO DEQ
HORSE CAMP CYN N/A       56  39  52 W12G22            *ARAVAIPA CYN
RINCON MTNS    N/A       46  29  51 W5G15             *NR MANNING CAMP
$$

AZZ509>511-230015-
LOCATION       SKY/WX    TMP DP  RH WIND       PRES   REMARKS
SAFFORD        SUNNY     63  38  39 NW17G24   29.82F
STRAY HORSE    N/A       53  23  31 W14G25            *
TRAIL CABIN    N/A       58  33  39 W9G21             *N OF GRANVILLE
BLACK HILLS    N/A       60  39  46 N15G25            *N OF FT THOMAS
DRY LAKE       N/A       49  33  53 W7G18             *NATANES MTNS
NOON CREEK     N/A       56  39  53 E3G10             *PINALENO MTNS
COLUMBINE      N/A       49  15  25 W6G19             *PINALENO MTNS
GUTHRIE        N/A       49  34  57 W26G38            *SW OF GUTHRIE
$$

AZZ502-503-513-230015-
LOCATION       SKY/WX    TMP DP  RH WIND       PRES   REMARKS
NOGALES        SUNNY     65  35  33 NW6       29.93F
SELLS          N/A       67  41  38 W7G11             *
SASABE         N/A       67  38  35 N6G13             *ALTAR VLY
HOPKINS        N/A       54  31  41 W14G30            *SANTA RITA MTNS
CARR CYN       N/A       63  31  30 SW4G14            *W OF HEREFORD
$$

AZZ507-508-512-230015-
LOCATION       SKY/WX    TMP DP  RH WIND       PRES   REMARKS
SIERRA VISTA   SUNNY     61  34  36 NW17G29   29.94R
DOUGLAS        SUNNY     67  33  28 NW15G24   29.89S
EMPIRE MTNS    N/A       59  35  40 NW11G23           *LAS CIENEGAS NCA
MULESHOE RANCH N/A       58  37  46 NW12G22           *PRESERVE
HEADQUARTERS   N/A       60  35  39 W9G17             *CHIRICAHUA MTNS
$$

.............................NOTES.............................
THIS IS AN AUTOMATED COLLECTIVE WITH MINIMAL QUALITY CONTROL.
PIMA CO DEQ SITES HAVE NONSTANDARD WIND SENSOR HEIGHTS.
PIMA CO DEQ SITES DO NOT REPORT WIND GUSTS.
* INDICATES WIND SENSORS LOCATED AT 20 FEET INSTEAD OF 33 FEET.
..............................KEY..............................
SKY/WX - SKY CONDITION/WEATHER
TMP    - TEMPERATURE IN FAHRENHEIT
DP     - DEWPOINT IN FAHRENHEIT
RH     - RELATIVE HUMIDITY IN PERCENT
WIND   - DIRECTION AND SPEED IN MILES PER HOUR (MPH)
VRB    - VARIABLE WIND DIRECTION
PRES   - MEAN SEA LEVEL PRESSURE IN INCHES OF MERCURY
         F - FALLING PRESSURE   R - RISING PRESSURE
         S - STEADY PRESSURE
VSB    - VISIBILITY IN MILES
HX     - HEAT INDEX IN FAHRENHEIT
WCI    - WIND CHILL INDEX IN FAHRENHEIT
N/A    - NOT AVAILABLE
AFB    - AIR FORCE BASE
         DAVIS-MONTHAN IS DAVIS-MONTHAN AIR FORCE BASE
CYN    - CANYON
MTNS   - MOUNTAINS
NCA    - NATIONAL CONSERVATION AREA
NR     - NEAR
VLY    - VALLEY
CONTL  - CONTINENTAL
PIMA CO DEQ - PIMA COUNTY DEPT OF ENVIRONMENTAL QUALITY



USA.gov is the U.S. government's official web portal to all federal, state and local government web resources and services.